Location: Innisfree Garden
(41.7591°N, 73.7490°W)
Time: 12:06:00
(UTC-04:00)

ISS - Visible Passes

Search period start: 15 April 2026 00:00
Search period end: 25 April 2026 00:00
Orbit: 415 x 424 km, 51.6° (Epoch: 15 April)

Date Brightness Start Highest point End Pass type
(mag) Time Alt. Az. Time Alt. Az. Time Alt. Az.
16 Apr -1.7 05:35:35 10° S 05:38:21 24° SE 05:41:08 10° E visible
17 Apr -1.1 04:49:14 10° SSE 04:51:08 14° SE 04:53:03 10° E visible
18 Apr -3.6 05:36:51 10° SW 05:40:11 71° SE 05:43:34 10° ENE visible
19 Apr -2.8 04:50:59 21° SSW 04:52:50 41° SE 04:56:02 10° ENE visible
20 Apr -2.0 04:05:31 24° SE 04:05:32 24° SE 04:08:20 10° ENE visible
21 Apr -0.7 03:19:58 11° E 03:19:58 11° E 03:20:13 10° E visible
21 Apr -3.7 04:52:55 25° WSW 04:54:43 69° NNW 04:58:05 10° NE visible
22 Apr -3.8 04:07:18 72° SE 04:07:18 72° SE 04:10:39 10° ENE visible
23 Apr -1.5 03:21:36 22° E 03:21:36 22° E 03:23:05 10° ENE visible
23 Apr -2.4 04:54:33 15° W 04:56:46 30° NNW 04:59:49 10° NE visible
24 Apr -3.1 04:08:48 41° NW 04:09:12 43° NNW 04:12:27 10° NE visible
